Regional Weather Roundup
Issued by NWS Sterling, VA

Home | Current Version | Previous Version | Text Only | Print | Product List | Glossary On
Versions: 1 2 3 4 5 6 7 8 9 10 11 12 13 14 15 16 17 18 19 20 21 22 23 24 25 26 27 28 29 30 31 32 33 34 35 36 37 38 39 40 41 42 43 44 45 46 47 48 49 50
510
ASUS41 KLWX 090510
RWRLWX

REGIONAL WEATHER ROUNDUP
NATIONAL WEATHER SERVICE BALTIMORE MD/WASHINGTON DC
1200 AM EST TUE FEB 09 2016

Note: "FAIR" indicates few or no clouds below 12,000 feet
with no significant weather and/or obstructions to visibility.
 TC=TEMPERATURE CELSIUS

 * =Non NWS site. Station does not report precipitation (e.g. rain,
    snow, etc.), thunder, or fog.

DCZ001-MDZ009-015-VAZ040>042-051-053>054-090600-
WASHINGTON METRO

CITY           SKY/WX    TMP DP  RH WIND       PRES   REMARKS
WASHINGTON NAT CLOUDY    39  34  82 SE7       29.67F
DULLES         LGT RAIN  38  33  82 SE8       29.64F
ANDREWS AFB    CLOUDY    36  34  90 SE6       29.64F
FT BELVOIR     CLOUDY    38  34  84 E5        29.65F
QUANTICO       CLOUDY    39  36  89 SE6       29.66F
COLLEGE PARK*  CLOUDY    37  36  93 CALM      29.66F
LEESBURG*      LGT RAIN  37  37 100 SE6       29.64F
MANASSAS*      CLOUDY    37  36  93 SE5       29.64F
GAITHERSBURG*  CLOUDY    36  30  80 SE7       29.67F

$$

MDZ006>007-011-014-090600-
BALTIMORE METRO

CITY           SKY/WX    TMP DP  RH WIND       PRES   REMARKS
BWI AIRPORT    LGT RAIN  36  34  92 SE6       29.66F
MD SCIENCE CTR   N/A     37  34  89 MISG      29.65F
MARTIN STATE   LGT RAIN  36  36 100 E7        29.69F
ANNAPOLIS      CLOUDY    37  35  92 SE13      29.67F WCI  29
FORT MEADE*    CLOUDY    36  34  93 SE3       29.68F

$$

MDZ012-015-019>023-090600-
MARYLAND EASTERN SHORE

CITY           SKY/WX    TMP DP  RH WIND       PRES   REMARKS
OCEAN CITY     MOCLDY    39  34  82 E8        29.67F
SALISBURY      CLOUDY    36  34  92 NE6       29.66F
BAY BRIDGE AP* RAIN      36  34  93 E3        29.68S
CAMBRIDGE*     MOCLDY    34  32  93 E6        29.66F
EASTON*        CLOUDY    36  36 100 SE5       29.71F

$$

MDZ017>025-090600-
SOUTHERN MARYLAND

CITY           SKY/WX    TMP DP  RH WIND       PRES   REMARKS
PATUXENT RIVER CLOUDY    38  34  85 SE9       29.65F
ST INIGOES     CLOUDY    39  35  86 E7        29.64F
LEONARDTOWN*   CLOUDY    37  34  87 E3        29.66F

$$

MDZ003>005-090600-
NORTH CENTRAL MARYLAND

CITY           SKY/WX    TMP DP  RH WIND       PRES   REMARKS
FREDERICK*     CLOUDY    36  36 100 CALM      29.67F
HAGERSTOWN APT CLOUDY    37  31  78 SE7       29.61F
WESTMINSTER*   DRIZZLE   36  34  93 SE9       29.62F WCI  29

$$

MDZ501>502-090600-
WESTERN MARYLAND

CITY           SKY/WX    TMP DP  RH WIND       PRES   REMARKS
OAKLAND*       MOCLDY    27  27 100 CALM      29.51F
CUMBERLAND*    CLOUDY    34  34 100 CALM      29.64F VSB 1/2

$$

VAZ025>031-090600-
SHENANDOAH VALLEY

CITY           SKY/WX    TMP DP  RH WIND       PRES   REMARKS
WINCHESTER*    DRIZZLE   37  34  87 CALM      29.60F
FRONT ROYAL*   CLOUDY    36  34  93 CALM      29.59F
LURAY*         CLOUDY    34  34 100 CALM      29.59F
NEW MARKET*    CLOUDY    34  33  96 CALM      29.59F
STAUNTON*      MOCLDY    35  33  93 CALM      29.59F FOG
WAYNESBORO*    CLOUDY    32  32  97 CALM      29.57F

$$

WVZ021-048>050-054>055-090600-
EASTERN WEST VIRGINIA PANHANDLE

CITY           SKY/WX    TMP DP  RH WIND       PRES   REMARKS
MARTINSBURG    MIX PCPN  36  32  85 SE5       29.61F
PETERSBURG*    CLOUDY    34  32  91 CALM      29.60F

$$

VAZ036>039-050-090600-
CENTRAL FOOTHILLS

CITY           SKY/WX    TMP DP  RH WIND       PRES   REMARKS
CHARLOTTESVILL CLOUDY    37  34  89 E5        29.60F FOG
CULPEPER*      RAIN      36  34  94 S3        29.64F
ORANGE*        DRIZZLE   36  36 100 CALM      29.63F
GORDONSVILLE*  CLOUDY    35  35 100 CALM      29.61F FOG
WARRENTON*     LGT RAIN  38  36  94 SE5       29.62F

$$

VAZ055>057-090600-
NORTH AND CENTRAL PIEDMONT

CITY           SKY/WX    TMP DP  RH WIND       PRES   REMARKS
FREDERICKSBRG* DRIZZLE   38  38 100 CALM      29.63F
STAFFORD*      DRIZZLE   37  35  93 E6        29.68F

$$

NCZ024-NYZ072-PAZ021-071-VAZ022-071-090600-
OTHER REGIONAL OBSERVATIONS

CITY           SKY/WX    TMP DP  RH WIND       PRES   REMARKS
NEW YORK CITY  CLOUDY    28  22  78 VRB7      29.77F
PHILADELPHIA   FLURRIES  32  28  85 E7        29.73F
PITTSBURGH     CLOUDY    32  30  92 SW3       29.57F
ROANOKE        FAIR      33  25  72 NW6       29.64F
RICHMOND       CLOUDY    38  36  92 SE6       29.63F
RALEIGH        FOG       37  36  96 CALM      29.64S VSB 1/8

$$

ANZ530>537-090600-
MARINE OBSERVATIONS

STATION/POSITION TIME  TEMP    WIND        PRES
                       AIR SEA DIR/SP/G
                 (UTC) (F)     (DEG/KT/KT) (MB)
THOMAS PT LIGHT  NOT AVBL
BALT KEY BRIDGE  0400   37     120/ 11/ 13 1005.1F
COVE POINT       0400   37     140/ 12/ 13 1005.5F
LEWISETTA        0400   40 40  150/  8/ 10 1004.6F
SOLOMONS ISLAND  0400   39 41  110/  9/ 12   N/A
PINEY POINT      0400          150/ 13/ 14   N/A

$$





USA.gov is the U.S. government's official web portal to all federal, state and local government web resources and services.